#timestamp,LO_Frequency,Hit,StdDev 
1553868015.8,286047000.9,N
1553868035.5,286047001.2,N
1553868055.3,286046998.9,N
1553868075.1,286046998.7,N
1553868095.9,286046999.1,N
1553868115.7,286046999.3,N
1553868135.5,286047000.5,N
1553868155.4,286047002.6,N
1553868175.8,286047001.7,N
1553868195.6,286047001.4,N
1553868215.4,286047001.8,N
1553868235.3,286047002.0,N
1553868255.1,286047004.1,Y
1553868275.9,286047002.6,P
1553868295.7,286047001.2,N
1553868315.5,286046999.2,N
1553868335.4,286046999.5,N
1553868355.2,286046999.7,N
1553868375.0,286047002.1,N
1553868375.9,286047002.1,N
1553868395.8,286047002.3,N
1553868415.6,286047002.4,N
1553868435.5,286047000.1,N
1553868455.3,286047000.2,N
1553868475.1,286047000.4,N
1553868495.9,286047000.7,N
1553868515.7,286046998.2,N
1553868535.5,286046998.7,N
1553868555.4,286046998.2,N
1553868575.2,286047001.2,N
1553868595.1,286046998.3,N
1553868596.0,286046998.3,N
1553868615.8,286046998.5,N
1553868635.7,286047000.2,N
1553868655.5,286046998.1,N
1553868675.3,286047001.1,N
1553868695.2,286047001.1,N
1553868715.0,286047001.2,N
1553868715.9,286047001.2,N
1553868735.8,286047000.2,N
1553868755.6,286046998.1,N
1553868775.4,286046998.8,N
1553868795.3,286046998.1,N
1553868815.1,286047001.0,N
1553868835.8,286047001.1,N
1553868855.7,286047001.0,N
1553868875.5,286047001.1,N
1553868895.3,286046999.0,N
1553868915.2,286046996.6,N
1553868935.0,286046996.7,N
1553868935.9,286046996.7,N
1553868955.8,286046997.0,N
1553868975.6,286046997.9,N
1553868995.4,286046997.0,N
1553869015.3,286046999.3,N
1553869035.1,286046998.1,N
1553869055.8,286047000.2,N
1553869075.7,286046999.9,N
1553869095.5,286047000.1,N
1553869115.4,286047000.5,N
1553869135.2,286047000.5,N
1553869155.0,286047000.0,N
1553869155.9,286047000.0,N
1553869175.8,286047000.0,N
1553869195.6,286046999.7,N
1553869215.4,286047000.5,N
1553869235.3,286047000.0,N
1553869255.1,286047000.9,N
1553869275.9,286047000.4,N
1553869295.7,286047001.3,N
1553869315.5,286047002.8,N
1553869335.4,286047000.9,N
1553869355.2,286046998.3,N
1553869375.0,286046998.6,N
1553869376.0,286046998.6,N
1553869395.8,286046998.8,N
1553869415.6,286046996.5,N
1553869435.5,286046999.0,N
1553869455.3,286046998.9,N
1553869475.1,286047000.8,N
1553869495.9,286047000.5,N
1553869515.7,286047000.2,N
1553869535.5,286046999.8,N
1553869555.4,286047002.7,N
1553869575.2,286047002.3,N
1553869595.1,286047002.8,N
1553869596.0,286047002.8,N
1553869615.8,286047000.3,N
1553869635.6,286047000.5,N
1553869655.5,286047000.6,N
1553869675.3,286046999.9,N
1553869695.2,286047000.5,N
1553869715.9,286047000.5,N
1553869735.7,286046998.5,N
1553869755.6,286046996.5,N
1553869775.4,286046998.4,N
1553869795.2,286046999.9,N
1553869815.1,286047000.9,N
1553869816.0,286047000.9,N
1553869835.8,286047002.8,N
1553869855.7,286047000.4,N
1553869875.5,286047000.0,N
1553869895.3,286047000.6,N
1553869915.2,286047000.9,N
1553869935.9,286047002.0,N
1553869955.7,286047002.6,N
1553869975.6,286047002.8,N
1553869995.4,286047000.3,N
1553870015.3,286046998.4,N
1553870035.1,286047000.8,N
1553870036.0,286047000.8,N
1553870055.8,286046999.1,N
1553870075.7,286046997.8,N
1553870095.5,286046996.6,N
1553870115.3,286046999.2,N
1553870135.2,286046999.6,N
1553870155.0,286046998.6,N
1553870155.9,286046998.6,N
1553870175.8,286046999.9,N
1553870195.6,286046999.8,N
1553870215.4,286047001.6,N
1553870235.3,286047002.5,N
1553870255.1,286047002.4,N
1553870275.8,286047002.8,N
1553870295.7,286046999.8,N
1553870315.5,286047002.2,N
1553870335.4,286047001.5,N
1553870355.2,286046998.2,N
1553870375.0,286047000.1,N
1553870375.9,286047000.1,N
1553870395.8,286047000.2,N
1553870415.6,286047001.5,N
1553870435.5,286047002.3,N
1553870455.3,286047000.6,N
1553870475.1,286047000.7,N
1553870495.9,286047000.9,N
1553870515.7,286046998.7,N
1553870535.5,286047001.1,N
1553870555.4,286046998.4,N
1553870575.2,286046998.5,N
1553870595.1,286046998.6,N
1553870596.0,286046998.6,N
1553870615.9,286047000.1,N
1553870635.7,286046998.5,N
1553870655.6,286046998.6,N
1553870675.4,286046998.6,N
1553870695.2,286047001.0,N
1553870715.1,286047002.2,N
1553870716.0,286047002.2,N
1553870735.8,286047000.2,N
1553870755.7,286047002.7,N
1553870775.5,286047001.9,N
1553870795.3,286047001.5,N
1553870815.2,286047002.0,N
1553870835.0,286047001.9,N
1553870835.9,286047001.9,N
1553870855.7,286047002.0,N
1553870875.6,286047001.0,N
1553870895.4,286047000.2,N
1553870915.3,286047002.5,N
1553870935.1,286047001.2,N
1553870955.8,286047000.0,N
1553870975.7,286047000.3,N
1553870995.5,286046998.1,N
1553871015.4,286047000.1,N
1553871035.2,286047002.5,N
1553871055.0,286047002.6,N
1553871055.9,286047002.6,N
1553871075.8,286047002.8,N
1553871095.6,286047002.1,N
1553871115.4,286047002.5,N
1553871135.3,286047001.8,N
1553871155.1,286047002.1,N
1553871175.9,286047002.6,N
1553871195.7,286047002.3,N
1553871215.5,286046998.2,N
1553871235.4,286046998.5,N
1553871255.2,286047000.8,N
1553871275.0,286047000.8,N
1553871275.9,286047000.8,N
1553871295.8,286046999.0,N
1553871315.6,286046998.9,N
1553871335.5,286047000.7,N
1553871355.3,286047001.1,N
1553871375.1,286046998.6,N
1553871395.9,286047000.9,N
1553871415.7,286047000.9,N
1553871435.5,286047000.4,N
1553871455.4,286047000.6,N
1553871475.2,286046998.6,N
1553871495.1,286046998.2,N
1553871496.0,286046998.2,N
1553871515.8,286046999.4,N
1553871535.6,286047000.4,N
1553871555.5,286046998.5,N
1553871575.3,286047001.1,N
1553871595.2,286047001.0,N
